Temperature
9 9 9 9 9 8 8 8 7 7 7 6 6 6 6 6 5 5 4 4 3 3 2 2 1 0 0 -0 -1 -1 -1 -1 -2 -2 -2 -2 -2 -2
9 9 9 9 8 8 8 8 7 6 6 6 6 6 5 5 5 4 4 3 3 3 2 1 1 0 -0 -1 -1 -2 -2 -2 -2 -2 -3 -3 -3 -3
9 9 9 9 8 8 8 7 7 7 6 6 5 5 5 4 4 4 3 3 2 2 1 1 0 -0 -1 -1 -2 -2 -3 -3 -3 -3 -3 -4 -4 -4
9 9 9 9 8 8 8 7 7 7 6 5 5 5 4 4 4 3 3 2 2 1 1 0 -0 -1 -1 -2 -2 -3 -3 -3 -4 -4 -4 -4 -4 -4
10 9 9 9 8 8 8 7 7 6 6 5 5 4 4 3 3 3 2 2 2 1 0 -0 -1 -1 -2 -2 -3 -3 -4 -4 -4 -5 -5 -5 -5 -5
9 9 9 9 8 8 7 7 7 6 6 5 4 4 3 3 3 2 2 2 1 0 -0 -1 -1 -2 -2 -3 -3 -4 -4 -5 -5 -5 -5 -5 -6 -6
9 9 9 8 8 7 7 7 6 6 5 5 4 3 3 2 2 1 1 1 0 -0 -1 -1 -2 -2 -3 -3 -4 -4 -4 -5 -5 -6 -6 -6 -6 -6
9 9 8 8 8 7 7 6 6 6 5 4 4 3 2 2 2 1 0 -0 -1 -1 -1 -2 -2 -3 -3 -4 -4 -4 -5 -5 -6 -6 -6 -6 -7 -7
9 9 8 8 7 7 6 6 6 5 4 4 3 3 2 1 1 1 -0 -1 -1 -2 -2 -2 -3 -3 -4 -4 -4 -5 -5 -5 -6 -6 -6 -7 -7 -7
9 8 8 8 7 7 6 6 5 5 4 3 3 2 2 1 1 0 -1 -1 -2 -3 -3 -3 -3 -4 -4 -4 -5 -5 -6 -6 -6 -6 -6 -7 -7 -7
8 8 8 7 7 6 6 5 5 4 3 3 2 2 1 1 0 -0 -1 -2 -2 -3 -4 -4 -4 -4 -4 -4 -5 -5 -6 -6 -6 -6 -6 -7 -7 -7
8 8 7 7 6 6 6 5 4 4 3 3 2 1 1 0 -0 -1 -2 -2 -3 -4 -4 -5 -5 -6 -6 -5 -5 -6 -6 -6 -6 -6 -7 -7 -7 -7
8 7 7 6 6 6 5 5 4 3 3 2 1 1 0 -0 -1 -2 -2 -3 -4 -4 -5 -5 -6 -6 -7 -7 -6 -6 -7 -7 -7 -7 -7 -7 -7 -7
8 7 7 6 6 5 5 4 3 3 2 1 1 0 -0 -1 -1 -2 -3 -3 -4 -4 -5 -6 -6 -6 -7 -7 -7 -6 -6 -7 -7 -7 -7 -7 -7 -7
7 7 6 6 5 4 4 3 3 2 2 1 0 -0 -1 -1 -2 -2 -3 -4 -4 -5 -5 -6 -6 -6 -7 -7 -7 -7 -7 -7 -7 -7 -7 -7 -7 -7
7 6 6 5 4 4 3 3 2 2 1 1 0 -1 -1 -2 -2 -3 -3 -4 -4 -4 -5 -6 -6 -6 -6 -7 -7 -7 -8 -8 -7 -7 -7 -7 -7 -7
6 6 5 4 4 3 3 2 2 1 0 -0 -1 -1 -2 -2 -3 -3 -4 -4 -5 -5 -5 -5 -6 -6 -6 -7 -7 -8 -8 -8 -8 -7 -7 -7 -7 -7
6 5 5 4 4 3 3 2 1 1 0 -0 -1 -1 -2 -2 -3 -4 -4 -5 -5 -6 -6 -6 -6 -6 -6 -7 -7 -8 -8 -8 -7 -7 -7 -7 -7 -7
6 5 5 4 4 3 2 2 1 1 -0 -1 -1 -2 -2 -3 -3 -4 -4 -5 -5 -6 -6 -7 -7 -8 -8 -8 -7 -7 -8 -8 -8 -7 -8 -8 -7 -7
5 5 4 4 3 3 2 2 1 0 -0 -1 -1 -2 -2 -3 -3 -4 -5 -5 -6 -6 -6 -7 -7 -8 -8 -9 -8 -7 -8 -8 -8 -8 -7 -7 -7 -7
5 4 4 4 3 3 2 1 1 0 -0 -1 -2 -2 -3 -3 -4 -4 -5 -5 -6 -6 -7 -7 -7 -8 -8 -8 -8 -8 -8 -8 -8 -8 -8 -7 -7 -7
4 4 4 3 3 2 2 1 1 0 -1 -1 -2 -3 -3 -3 -4 -4 -5 -5 -6 -7 -7 -7 -7 -7 -8 -8 -8 -8 -8 -7 -7 -8 -8 -8 -8 -8
4 4 3 3 2 2 1 1 0 -0 -1 -2 -2 -3 -3 -4 -4 -4 -5 -6 -6 -7 -7 -7 -7 -8 -8 -8 -8 -8 -8 -8 -7 -7 -7 -7 -7 -7
Wind_Speed
12 12 9 7 6 6 5 5 4 4 4 3 2 1 1 2 3 4 5 6 8 9 10 11 12 13 15 16 17 18 19 19 20 20 21 22 22 22
10 11 10 7 6 6 5 5 5 5 4 2 2 1 0 1 3 4 5 6 6 8 9 10 12 13 14 15 16 17 18 18 19 20 20 21 21 21
12 12 11 10 7 6 6 5 5 5 6 4 1 1 1 2 3 4 5 5 5 7 9 10 11 12 13 14 15 16 17 18 19 19 20 20 21 21
14 12 12 9 9 7 6 6 5 5 5 5 2 1 2 2 3 4 4 5 5 6 9 10 11 12 13 13 14 15 16 17 18 19 20 20 20 21
14 13 12 11 10 8 7 6 5 4 4 3 2 1 1 2 3 3 4 5 5 6 8 9 10 11 12 12 13 15 16 16 17 18 19 19 20 21
12 12 12 12 11 10 8 7 6 5 3 3 2 1 1 2 3 3 4 4 5 5 7 8 9 9 9 11 12 14 15 16 17 18 19 19 19 20
11 11 10 10 10 8 7 7 7 5 4 3 2 1 1 1 2 2 4 5 5 4 6 6 7 7 7 8 10 14 16 16 17 18 19 19 20 20
12 10 9 10 10 10 9 8 7 6 6 4 3 2 2 1 1 2 3 4 3 3 6 6 6 6 7 7 11 14 15 16 17 18 19 19 19 19
12 11 8 8 10 9 9 9 7 5 4 4 4 3 2 1 1 1 2 4 4 5 6 5 6 7 7 8 11 13 15 16 17 18 19 19 19 19
11 12 11 11 10 11 9 8 6 4 3 2 2 2 1 1 1 1 2 3 4 3 4 4 7 8 8 8 8 12 14 16 17 18 18 18 19 18
10 11 12 11 14 15 11 9 8 5 6 7 6 6 6 5 3 2 2 2 3 3 3 4 6 9 8 6 7 11 14 15 16 17 17 18 18 17
9 9 12 13 16 16 11 10 9 7 7 7 7 6 6 5 4 2 1 2 2 2 3 4 5 6 6 5 8 10 11 13 15 15 16 17 17 13
9 8 9 16 17 16 11 8 10 9 7 6 5 4 3 3 2 2 2 1 2 2 2 3 4 5 5 6 8 8 9 10 11 12 13 15 16 12
10 9 10 18 17 15 10 11 14 11 6 5 4 3 2 2 1 2 2 2 3 3 4 4 3 5 6 7 7 8 9 10 9 9 11 14 13 12
10 14 17 19 16 12 12 15 12 7 6 5 4 3 2 2 1 1 2 2 2 3 3 5 5 6 6 6 7 9 9 9 8 9 10 10 9 9
12 15 18 17 12 11 12 10 6 5 5 5 4 3 3 2 1 1 1 2 2 2 3 5 6 6 7 8 8 9 9 7 9 10 10 10 9 8
14 10 9 9 8 7 7 6 5 5 5 4 4 4 3 2 1 1 1 1 2 3 4 5 7 7 8 8 7 8 8 9 9 10 10 10 9 7
16 11 10 10 9 9 8 7 6 5 5 4 4 4 3 2 1 0 1 1 2 3 4 5 6 6 4 4 6 7 8 9 9 10 9 9 10 8
11 10 10 10 9 9 8 7 6 6 5 5 4 4 3 2 2 1 0 1 2 3 4 4 4 5 7 7 4 4 7 9 10 9 9 9 10 10
8 10 10 9 9 9 8 7 7 6 5 5 4 4 3 3 2 1 1 1 2 3 3 3 4 5 5 6 6 6 9 9 9 10 10 10 9 11
9 9 9 9 9 8 8 8 8 7 6 5 5 4 3 3 2 1 1 1 2 2 3 4 4 7 5 5 6 7 7 9 10 8 10 9 9 7
10 9 9 9 9 9 8 8 7 7 7 5 5 4 3 3 2 2 1 1 1 2 4 4 4 4 4 5 7 9 9 10 11 10 9 7 6 6
10 10 9 9 9 9 8 9 8 7 6 6 5 4 4 3 2 2 1 1 1 2 3 4 4 4 5 5 7 8 10 11 9 9 7 10 11 12
Wind_Direction
206 207 208 208 208 212 216 220 235 259 259 221 208 195 265 291 322 307 307 321 321 323 324 325 326 326 326 326 327 327 326 326 328 327 327 328 328 330
202 202 204 204 203 203 206 214 225 239 257 248 227 220 275 308 323 312 313 316 320 328 328 327 328 328 328 329 329 328 330 330 331 331 330 330 330 331
197 201 202 201 198 197 197 204 214 222 244 248 233 225 258 297 315 317 319 319 324 331 328 328 329 330 331 330 330 331 333 333 333 333 332 331 332 331
197 198 201 196 198 197 194 200 207 210 227 244 235 230 267 296 312 317 323 323 323 330 328 328 330 329 331 331 332 333 334 334 333 332 332 332 333 333
196 196 197 194 198 196 193 197 199 198 211 227 233 244 281 314 313 315 318 327 325 325 324 325 326 327 329 332 334 334 334 333 334 334 334 333 333 332
194 195 194 194 196 193 192 193 185 181 184 199 215 231 293 327 315 318 317 326 322 323 326 325 325 326 330 332 334 335 334 333 332 332 332 332 332 330
188 190 189 187 188 183 178 180 176 173 172 184 195 205 244 319 317 320 315 324 321 330 326 322 321 323 328 330 334 335 334 333 333 333 332 331 330 329
181 179 175 174 171 165 161 162 165 170 176 178 189 209 233 266 322 323 326 328 313 339 325 317 321 321 329 329 334 334 334 335 335 333 332 331 330 329
178 172 166 167 166 163 155 147 145 142 157 169 179 198 212 212 232 303 320 318 307 326 326 311 322 321 327 321 325 330 333 334 334 332 331 330 329 328
176 172 167 165 165 159 152 147 143 138 141 144 153 157 142 127 138 330 323 321 313 322 341 308 321 323 321 312 323 330 330 331 332 332 331 331 330 327
167 167 165 163 159 154 150 144 136 122 108 107 103 104 103 98 88 73 24 347 327 325 352 321 318 324 314 306 320 324 325 328 331 332 333 333 332 329
158 160 163 160 158 157 157 153 150 146 137 123 114 109 105 100 84 65 35 339 329 308 351 331 319 333 316 308 320 323 326 328 329 329 331 334 336 333
159 161 162 157 156 158 156 156 153 148 143 134 126 118 105 91 70 50 18 325 308 295 325 330 312 320 307 308 313 319 327 328 328 329 330 333 334 333
160 159 155 155 155 155 150 142 141 138 135 136 135 131 122 105 68 35 22 343 309 287 295 306 293 304 307 306 306 318 325 325 326 327 329 330 329 328
150 149 147 150 149 147 140 142 142 139 141 146 146 138 129 121 96 39 21 6 330 304 298 301 296 297 292 288 297 309 320 323 326 328 327 326 325 325
134 138 139 139 134 135 140 141 137 141 146 148 141 131 125 124 113 46 355 350 333 327 320 312 308 298 290 288 290 300 314 317 321 326 325 320 319 320
138 135 139 143 142 140 139 136 136 140 140 139 136 134 136 136 119 52 346 325 324 327 329 329 324 307 284 281 291 302 314 317 321 325 324 321 322 324
141 147 152 155 156 154 153 151 150 153 151 147 145 145 149 155 153 141 317 321 324 326 327 332 334 331 318 279 251 294 312 318 321 321 319 318 318 324
146 154 158 159 159 158 158 158 157 155 154 153 151 150 151 156 163 180 265 321 325 325 327 330 336 338 332 331 311 278 311 318 320 319 320 317 312 314
155 157 159 159 159 159 159 156 153 152 156 157 153 152 157 164 171 188 227 305 318 322 322 326 335 331 319 312 305 300 308 313 318 317 319 316 308 301
159 157 157 157 157 156 156 156 155 158 159 159 156 157 162 167 174 186 223 282 309 311 314 318 324 320 304 295 300 309 317 320 313 306 314 319 322 321
160 157 156 155 155 154 154 154 154 155 157 160 159 159 163 167 170 180 202 255 292 308 311 317 326 325 322 316 318 318 322 326 323 313 298 296 311 319
159 156 155 155 154 153 154 156 156 157 160 161 160 158 159 163 165 170 187 245 300 318 320 323 330 330 324 317 317 319 324 329 332 333 330 328 317 301
Height
1503 1506 1507 1509 1511 1512 1513 1513 1515 1513 1513 1510 1508 1506 1505 1502 1500 1497 1495 1492 1489 1486 1482 1479 1475 1471 1467 1464 1460 1456 1452 1449 1445 1441 1437 1433 1429 1425
1498 1500 1502 1504 1506 1507 1508 1509 1509 1509 1509 1507 1505 1503 1501 1499 1497 1494 1491 1488 1485 1482 1478 1475 1471 1467 1464 1460 1456 1452 1449 1445 1441 1437 1433 1429 1426 1422
1492 1495 1497 1499 1501 1502 1503 1504 1504 1505 1504 1503 1501 1499 1498 1496 1493 1491 1488 1485 1481 1478 1474 1471 1467 1463 1460 1456 1452 1449 1445 1441 1437 1433 1429 1426 1422 1419
1487 1489 1492 1494 1496 1497 1498 1499 1499 1500 1500 1499 1497 1495 1494 1492 1490 1487 1484 1481 1478 1474 1471 1467 1464 1460 1456 1452 1449 1445 1441 1437 1433 1430 1426 1422 1419 1415
1481 1484 1486 1489 1490 1492 1493 1494 1495 1495 1495 1495 1493 1492 1490 1489 1487 1484 1481 1478 1475 1471 1468 1464 1460 1457 1453 1449 1445 1442 1438 1434 1430 1426 1423 1419 1415 1412
1475 1478 1481 1483 1485 1487 1488 1489 1490 1491 1491 1490 1490 1488 1487 1485 1483 1481 1478 1475 1472 1469 1465 1461 1458 1454 1450 1446 1442 1438 1435 1431 1427 1423 1420 1416 1412 1409
1470 1473 1476 1478 1481 1483 1484 1485 1486 1486 1486 1486 1486 1485 1483 1482 1480 1477 1475 1472 1469 1466 1462 1458 1455 1451 1447 1443 1439 1436 1432 1428 1424 1420 1416 1413 1409 1405
1465 1468 1471 1474 1476 1478 1480 1481 1482 1483 1482 1483 1482 1481 1480 1479 1477 1475 1472 1469 1466 1464 1460 1456 1453 1449 1445 1441 1437 1433 1429 1425 1421 1417 1413 1409 1406 1402
1460 1463 1466 1469 1472 1474 1475 1477 1478 1479 1479 1479 1479 1478 1477 1475 1474 1472 1470 1467 1464 1461 1457 1453 1450 1447 1443 1439 1435 1430 1426 1422 1418 1414 1410 1406 1402 1399
1455 1459 1462 1464 1467 1469 1471 1473 1474 1475 1475 1475 1475 1475 1474 1473 1471 1470 1468 1465 1462 1459 1456 1452 1448 1444 1440 1436 1432 1428 1424 1419 1415 1411 1407 1403 1399 1396
1451 1454 1457 1460 1463 1465 1467 1469 1470 1471 1472 1472 1472 1471 1471 1470 1469 1468 1465 1463 1460 1458 1454 1451 1446 1442 1437 1434 1430 1426 1422 1417 1413 1409 1404 1400 1397 1393
1446 1450 1453 1456 1459 1461 1463 1465 1466 1467 1468 1468 1469 1468 1468 1467 1466 1465 1463 1461 1458 1455 1453 1449 1445 1441 1435 1432 1428 1424 1420 1415 1411 1407 1403 1399 1395 1391
1441 1445 1449 1452 1455 1458 1460 1462 1463 1464 1465 1466 1466 1466 1465 1465 1464 1462 1461 1459 1457 1454 1452 1448 1444 1440 1436 1431 1426 1423 1418 1414 1410 1405 1401 1397 1393 1390
1437 1441 1445 1449 1452 1455 1457 1459 1460 1461 1462 1463 1463 1463 1463 1462 1462 1460 1459 1457 1455 1453 1449 1446 1443 1439 1435 1430 1425 1421 1417 1413 1408 1404 1400 1396 1393 1389
1434 1438 1442 1446 1449 1451 1454 1456 1457 1458 1459 1460 1460 1461 1461 1460 1459 1458 1456 1455 1453 1450 1447 1444 1441 1438 1434 1430 1425 1420 1416 1411 1407 1403 1399 1395 1391 1388
1431 1435 1439 1442 1445 1448 1450 1452 1454 1456 1457 1458 1458 1458 1458 1458 1457 1456 1454 1453 1451 1448 1446 1443 1439 1436 1432 1428 1424 1420 1416 1411 1406 1402 1398 1394 1390 1387
1426 1431 1435 1438 1441 1444 1447 1449 1451 1453 1454 1455 1455 1456 1456 1456 1455 1454 1452 1450 1448 1446 1443 1441 1438 1434 1430 1427 1423 1419 1414 1410 1406 1401 1397 1393 1389 1386
1423 1427 1430 1434 1437 1440 1443 1446 1448 1450 1451 1452 1453 1453 1454 1453 1453 1452 1450 1449 1446 1444 1441 1438 1435 1431 1429 1425 1423 1417 1413 1409 1405 1400 1396 1392 1388 1385
1419 1423 1427 1430 1434 1437 1440 1443 1445 1447 1448 1450 1450 1451 1451 1451 1450 1450 1448 1447 1445 1443 1440 1437 1434 1431 1428 1424 1420 1417 1412 1407 1403 1399 1395 1391 1387 1383
1415 1419 1423 1427 1430 1434 1437 1439 1442 1444 1445 1447 1448 1448 1449 1449 1448 1447 1446 1445 1443 1441 1439 1436 1434 1431 1428 1425 1420 1415 1412 1407 1402 1398 1394 1390 1386 1382
1411 1416 1420 1423 1427 1430 1433 1436 1439 1441 1443 1444 1445 1446 1446 1446 1446 1445 1444 1443 1442 1440 1437 1435 1433 1430 1427 1423 1419 1415 1411 1407 1402 1398 1393 1388 1384 1381
1408 1412 1416 1420 1424 1427 1430 1433 1435 1437 1439 1441 1442 1443 1444 1444 1444 1443 1442 1441 1440 1438 1436 1434 1432 1429 1426 1422 1418 1414 1410 1406 1402 1398 1393 1389 1386 1381
1405 1409 1413 1417 1421 1424 1427 1430 1432 1434 1436 1438 1439 1440 1441 1441 1441 1441 1440 1439 1438 1437 1435 1432 1430 1428 1425 1422 1418 1414 1410 1405 1401 1397 1394 1390 1387 1383